"2009-11-05 00:00:00",1388446,2.336,277.1,1.293,0.09,8.51,103.842,9.11,10.24,39.98,0,110.3,13.35,9.89,239.1
"2009-11-05 00:00:30",1388447,2.434,274.5,1.534,0.065,8.5,103.8494,9.13,10.17,39.92,0,110.2,13.35,9.91,236.5
"2009-11-05 00:01:00",1388448,2.361,272,2.457,0.481,9.09,103.8381,9.1,10.21,40.03,0,110.2,13.32,9.88,234.0
"2009-11-05 00:01:30",1388449,4.342,271.9,7.865,1.225,12.9,103.8234,9.06,10.41,40.42,0,110.2,13.32,9.85,233.9
"2009-11-05 00:02:00",1388450,3.655,259.1,8.12,1.383,12.59,103.8237,9.06,10.26,40.58,0,110.2,13.32,9.85,221.1
"2009-11-05 00:02:30",1388451,2.116,246.3,0.867,0.044,9.72,103.824,9.06,10.21,40.6,0,110.2,13.36,9.85,208.3
"2009-11-05 00:03:00",1388452,3.333,256.1,6.224,1.295,11.74,103.8206,9.06,10.19,40.63,0,110.2,13.32,9.84,218.1
"2009-11-05 00:03:30",1388453,2.989,255.5,5.409,1.162,10.35,103.8119,9.03,10.08,40.59,0,110.2,13.32,9.82,217.5
"2009-11-05 00:04:00",1388454,3.176,260.1,6.945,1.282,10.78,103.7975,9,10.23,40.84,0,110.2,13.32,9.78,222.1
"2009-11-05 00:04:30",1388455,2.891,257.9,4.726,0.994,9.47,103.7902,8.98,10.06,40.8,0,110.2,13.32,9.76,219.9
"2009-11-05 00:05:00",1388456,2.264,255.3,0.745,0.101,9.02,103.7902,8.98,10.06,40.89,0,110.2,13.36,9.76,217.3
"2009-11-05 00:05:30",1388457,2.485,257.2,4.726,0.985,9.62,103.7902,8.98,10.04,41,0,110.2,13.33,9.76,219.2
"2009-11-05 00:06:00",1388458,3.385,265.4,7.023,1.311,12.71,103.7859,8.97,10.29,41.28,0,110.2,13.33,9.75,227.4
"2009-11-05 00:06:30",1388459,2.964,272.6,3.783,1.293,11.82,103.7786,8.95,10.2,41.07,0,110.2,13.33,9.73,234.6
"2009-11-05 00:07:00",1388460,3.004,282.4,4.935,1.383,11.33,103.762,8.91,10.1,40.65,0,110.2,13.33,9.69,244.4
"2009-11-05 00:07:30",1388461,2.007,284.6,6.081,1.048,9.89,103.7628,8.91,10.16,40.62,0,110.2,13.32,9.69,246.6
"2009-11-05 00:08:00",1388462,1.888,293.5,6.248,1.111,9.38,103.7651,8.91,10.15,40.61,0,110.2,13.33,9.70,255.5
"2009-11-05 00:08:30",1388463,2.069,290.2,8.41,0.998,8.8,103.7683,8.92,10,40.52,0,110.2,13.33,9.70,252.2
"2009-11-05 00:09:00",1388464,2.151,271.3,10.11,1.032,9.78,103.7696,8.92,10.12,40.63,0,110.2,13.33,9.71,233.3
"2009-11-05 00:09:30",1388465,1.822,248.5,3.38,0.053,8.86,103.7702,8.93,9.97,40.94,0,110.2,13.36,9.71,210.5
"2009-11-05 00:10:00",1388466,1.97,244.1,1.927,0.084,9.23,103.7616,8.9,9.96,41.24,0,110.2,13.36,9.69,206.1
"2009-11-05 00:10:30",1388467,3.499,249.5,7.191,1.295,12.06,103.7576,8.89,10.07,41.49,0,110.2,13.33,9.68,211.5
"2009-11-05 00:11:00",1388468,4.337,255.2,6.346,1.11,14.17,103.7576,8.89,10.15,41.63,0,110.2,13.33,9.68,217.2
"2009-11-05 00:11:30",1388469,4.114,254.1,7.093,1.34,12.77,103.7576,8.89,10.07,41.61,0,110.2,13.33,9.68,216.1
"2009-11-05 00:12:00",1388470,2.885,246.6,2.542,0.659,9.64,103.7565,8.89,9.92,41.51,0,110.2,13.34,9.67,208.6
"2009-11-05 00:12:30",1388471,2.902,256,8.12,1.033,10.44,103.7494,8.87,10.07,41.65,0,110.2,13.34,9.66,218.0
"2009-11-05 00:13:00",1388472,3.04,265.2,2.901,1.084,9.74,103.7342,8.83,9.93,41.42,0,110.2,13.34,9.62,227.2
"2009-11-05 00:13:30",1388473,2.399,269.7,1.523,0.083,8.68,103.724,8.81,9.95,41.28,0,110.2,13.38,9.59,231.7
"2009-11-05 00:14:00",1388474,2.644,265.7,2.028,0.125,8.63,103.7238,8.81,9.87,41.2,0,110.2,13.38,9.59,227.7
"2009-11-05 00:14:30",1388475,3.065,266.7,4.464,0.528,9.17,103.7238,8.81,9.87,41.26,0,110.2,13.35,9.59,228.7
"2009-11-05 00:15:00",1388476,4.263,266.9,6.688,1.344,12.26,103.7238,8.81,10.11,41.85,0,110.2,13.35,9.59,228.9
"2009-11-05 00:15:30",1388477,5.205,270.8,5.353,1.085,14.03,103.7238,8.81,10.12,42.03,0,110.2,13.35,9.59,232.8
"2009-11-05 00:16:00",1388478,4.186,260.2,6.051,1.249,12.12,103.7238,8.81,10,41.92,0,110.1,13.35,9.59,222.2
"2009-11-05 00:16:30",1388479,3.696,257.6,6.141,1.009,10.99,103.7238,8.81,9.96,41.96,0,110.1,13.35,9.59,219.6
"2009-11-05 00:17:00",1388480,3.45,252.8,6.033,1.043,10.13,103.7249,8.81,9.87,41.91,0,110.1,13.35,9.59,214.8
"2009-11-05 00:17:30",1388481,4.054,253.6,7.47,1.32,12.02,103.7261,8.81,9.95,42.03,0,110.1,13.35,9.60,215.6
"2009-11-05 00:18:00",1388482,3.06,242.9,2.051,0.099,10.12,103.7305,8.82,9.83,41.83,0,110.1,13.39,9.61,204.9
"2009-11-05 00:18:30",1388483,3.073,239.5,1.742,0.103,10.45,103.732,8.83,9.84,41.77,0,110.1,13.39,9.61,201.5
"2009-11-05 00:19:00",1388484,3.311,245.5,5.013,0.806,11.56,103.7366,8.84,9.97,42,0,110.1,13.35,9.62,207.5
"2009-11-05 00:19:30",1388485,5.19,257,5.372,1.136,14.87,103.7419,8.85,10.07,42.13,0,110.1,13.35,9.64,219.0
"2009-11-05 00:20:00",1388486,4.985,256.4,6.609,1.236,14.34,103.7492,8.87,10.09,42.19,0,110.1,13.35,9.66,218.4
"2009-11-05 00:20:30",1388487,3.578,250,4.245,0.999,10.74,103.7554,8.89,9.85,42.02,0,110.1,13.35,9.67,212.0
"2009-11-05 00:21:00",1388488,3.938,254.8,7.376,1.269,11.97,103.7577,8.89,10.02,42.23,0,110.1,13.35,9.68,216.8
"2009-11-05 00:21:30",1388489,3.197,253.8,3.39,0.834,9.79,103.7589,8.9,9.97,42.12,0,110.1,13.35,9.68,215.8
"2009-11-05 00:22:00",1388490,2.851,263.1,4.11,0.088,9.53,103.7606,8.9,9.9,41.89,0,110.1,13.39,9.68,225.1
"2009-11-05 00:22:30",1388491,3.06,270.1,1.034,0.075,9.26,103.7693,8.92,9.89,41.82,0,110.1,13.39,9.71,232.1
"2009-11-05 00:23:00",1388492,3.746,273.9,4.793,0.975,10.28,103.7809,8.95,9.96,41.8,0,110.1,13.35,9.74,235.9
"2009-11-05 00:23:30",1388493,4.94,278,6.673,1.326,12.96,103.7908,8.98,10.09,41.86,0,110.1,13.35,9.76,240.0
"2009-11-05 00:24:00",1388494,5.31,280.6,6.53,1.223,13.47,103.7927,8.98,10.17,42.02,0,110.1,13.35,9.77,242.6
"2009-11-05 00:24:30",1388495,4.115,274.6,6.918,1.339,11.73,103.7927,8.98,10.07,41.92,0,110.1,13.35,9.77,236.6
"2009-11-05 00:25:00",1388496,2.914,266.6,1.159,0.066,9.23,103.7927,8.98,10,41.74,0,110.1,13.39,9.77,228.6
"2009-11-05 00:25:30",1388497,3.971,270.8,6.94,1.343,11.61,103.7927,8.98,10.06,41.71,0,110.1,13.35,9.77,232.8
"2009-11-05 00:26:00",1388498,2.615,263.8,0.509,0.033,9.28,103.7927,8.98,9.99,41.7,0,110.1,13.39,9.77,225.8
"2009-11-05 00:26:30",1388499,2.483,262,1.167,0.083,9.32,103.7936,8.99,9.98,41.69,0,110.1,13.39,9.77,224.0
"2009-11-05 00:27:00",1388500,2.466,258.2,0.661,0.032,9.28,103.7964,8.99,9.99,41.68,0,110.1,13.39,9.78,220.2
"2009-11-05 00:27:30",1388501,3.499,268.8,7.53,1.29,11.62,103.8054,9.02,10.14,41.6,0,110.1,13.35,9.80,230.8
"2009-11-05 00:28:00",1388502,4,279,7.239,1.372,12.88,103.8088,9.03,10.22,41.68,0,110.1,13.36,9.81,241.0
"2009-11-05 00:28:30",1388503,4.955,281.6,5.798,1.118,13.2,103.8097,9.03,10.21,41.57,0,110.1,13.36,9.81,243.6
"2009-11-05 00:29:00",1388504,3.68,275.7,6.053,1.196,10.84,103.8097,9.03,10.12,41.51,0,110.1,13.36,9.81,237.7
"2009-11-05 00:29:30",1388505,4.11,278.1,7.302,1.278,10.62,103.81,9.03,10.06,41.4,0,110.1,13.36,9.81,240.1
"2009-11-05 00:30:00",1388506,4.079,278.1,6.634,1.277,11,103.8109,9.03,10.21,41.52,0,110.1,13.36,9.81,240.1
"2009-11-05 00:30:30",1388507,2.951,270.9,0.639,0.04,8.79,103.8114,9.03,10.04,41.33,0,110.1,13.4,9.82,232.9
"2009-11-05 00:31:00",1388508,3.06,269.3,0.857,0.036,8.87,103.8141,9.04,10.04,41.36,0,110.1,13.4,9.82,231.3
"2009-11-05 00:31:30",1388509,3.582,269.7,5.573,0.991,10.71,103.8182,9.05,10.19,41.5,0,110.1,13.37,9.83,231.7
"2009-11-05 00:32:00",1388510,4.289,271.7,6.778,1.338,12.19,103.8197,9.05,10.15,41.48,0,110.1,13.37,9.84,233.7
"2009-11-05 00:32:30",1388511,4.685,275.5,6.203,1.281,13.07,103.825,9.07,10.24,41.58,0,110.1,13.37,9.85,237.5
"2009-11-05 00:33:00",1388512,3.967,268.6,7.984,1.327,11.58,103.8201,9.05,10.14,41.46,0,110.1,13.37,9.84,230.6
"2009-11-05 00:33:30",1388513,3.215,259.7,5.193,1.088,10.75,103.8176,9.05,10.26,41.61,0,110.1,13.37,9.83,221.7
"2009-11-05 00:34:00",1388514,3.074,258.1,4.739,1.153,9.78,103.8176,9.05,10.08,41.42,0,110.1,13.37,9.83,220.1
"2009-11-05 00:34:30",1388515,2.626,265.6,4.695,0.664,9.53,103.8229,9.06,10.17,41.49,0,110.1,13.37,9.84,227.6
"2009-11-05 00:35:00",1388516,2.617,267.9,0.454,0.03,8.74,103.8264,9.07,10.04,41.33,0,110.1,13.41,9.85,229.9
"2009-11-05 00:35:30",1388517,2.546,266.2,1.215,0.056,8.97,103.8276,9.07,10.03,41.33,0,110.1,13.41,9.86,228.2
"2009-11-05 00:36:00",1388518,3.69,270.7,7.63,1.335,11.71,103.8279,9.07,10.19,41.53,0,110.1,13.37,9.86,232.7
"2009-11-05 00:36:30",1388519,3.99,276.5,7.276,1.297,12.49,103.8279,9.07,10.27,41.66,0,110.1,13.37,9.86,238.5
"2009-11-05 00:37:00",1388520,3.357,276.5,5.242,1.361,11.62,103.8279,9.07,10.14,41.55,0,110.1,13.38,9.86,238.5
"2009-11-05 00:37:30",1388521,3.389,280.4,6.359,1.245,11.2,103.8242,9.06,10.1,41.48,0,110.1,13.37,9.85,242.4
"2009-11-05 00:38:00",1388522,4.29,282.6,6.878,1.307,11.93,103.8163,9.04,10.25,41.66,0,110.1,13.37,9.83,244.6
"2009-11-05 00:38:30",1388523,3.436,274.9,4.345,0.863,8.71,103.8014,9.01,10.08,41.43,0,110.1,13.37,9.79,236.9
"2009-11-05 00:39:00",1388524,3.09,273.5,2.435,0.037,8.84,103.7943,8.99,10.07,41.44,0,110.1,13.41,9.77,235.5
"2009-11-05 00:39:30",1388525,3.266,272.4,0.653,0.074,8.53,103.794,8.99,10.02,41.41,0,110.1,13.41,9.77,234.4
"2009-11-05 00:40:00",1388526,3.736,273.6,5.637,0.957,10.43,103.794,8.99,10.16,41.61,0,110.1,13.38,9.77,235.6
"2009-11-05 00:40:30",1388527,4.703,277.4,6.771,1.301,12.54,103.794,8.99,10.23,41.73,0,110.1,13.37,9.77,239.4
"2009-11-05 00:41:00",1388528,4.155,273.6,7.549,1.341,11.79,103.794,8.99,10.12,41.69,0,110.1,13.37,9.77,235.6
"2009-11-05 00:41:30",1388529,3.726,267.6,6.273,1.251,11.33,103.7935,8.99,10.07,41.69,0,110.1,13.37,9.77,229.6
"2009-11-05 00:42:00",1388530,3.511,267.1,7.008,1.303,11.51,103.7884,8.97,10.12,41.86,0,110.1,13.37,9.76,229.1
"2009-11-05 00:42:30",1388531,3.05,263.6,7.145,1.347,11.16,103.7715,8.93,10.04,41.88,0,110.1,13.37,9.71,225.6
"2009-11-05 00:43:00",1388532,1.828,263.3,3.341,0.061,8.94,103.7604,8.9,9.99,41.92,0,110.1,13.41,9.68,225.3
"2009-11-05 00:43:30",1388533,1.876,271.1,2.796,0.151,8.67,103.7602,8.9,9.96,41.86,0,110.1,13.41,9.68,233.1
"2009-11-05 00:44:00",1388534,2.026,289.9,5.863,0.044,8.51,103.7602,8.9,9.94,41.8,0,110.1,13.41,9.68,251.9
"2009-11-05 00:44:30",1388535,3.098,306.7,7.104,1.306,11.08,103.7602,8.9,10.11,41.9,0,110.1,13.38,9.68,268.7
"2009-11-05 00:45:00",1388536,3.567,305.8,6.244,1.316,12.17,103.7599,8.9,10.17,41.95,0,110.1,13.38,9.68,267.8
"2009-11-05 00:45:30",1388537,2.671,301.9,6.495,1.112,10.37,103.7548,8.89,10.01,41.8,0,110.1,13.38,9.67,263.9
"2009-11-05 00:46:00",1388538,2.092,297.3,0.871,0.069,8.58,103.7424,8.86,9.91,41.69,0,110.1,13.42,9.64,259.3
"2009-11-05 00:46:30",1388539,3.348,300.2,6.986,1.262,11.13,103.7271,8.82,10.19,41.96,0,110.1,13.39,9.60,262.2
"2009-11-05 00:47:00",1388540,3.541,291.9,6.538,1.336,11.76,103.7278,8.82,10.1,41.89,0,110.1,13.39,9.60,253.9
"2009-11-05 00:47:30",1388541,2.678,270.2,4.299,0.633,8.48,103.7301,8.82,9.89,41.74,0,110.1,13.39,9.61,232.2
"2009-11-05 00:48:00",1388542,2.638,262,1.599,0.107,8.63,103.7322,8.83,9.87,41.82,0,110.1,13.42,9.61,224.0
"2009-11-05 00:48:30",1388543,2.711,259.9,0.659,0.044,9.26,103.713,8.78,9.93,42.02,0,110.1,13.42,9.56,221.9
"2009-11-05 00:49:00",1388544,4.552,271.3,6.231,1.219,12.88,103.7012,8.75,10.1,42.28,0,110.1,13.39,9.53,233.3
"2009-11-05 00:49:30",1388545,4.014,266.9,7.508,1.346,12.26,103.7044,8.76,9.99,42.25,0,110.1,13.39,9.54,228.9
"2009-11-05 00:50:00",1388546,2.606,258.6,0.636,0.024,9.7,103.7062,8.76,9.8,42.16,0,110,13.42,9.55,220.6
"2009-11-05 00:50:30",1388547,3.468,265.9,7.12,1.239,10.82,103.712,8.78,9.99,42.4,0,110.1,13.39,9.56,227.9
"2009-11-05 00:51:00",1388548,4.557,273.2,6.098,1.175,12.72,103.705,8.76,9.98,42.45,0,110,13.39,9.54,235.2
"2009-11-05 00:51:30",1388549,2.553,263.6,0.879,0.046,9.01,103.6862,8.71,9.78,42.31,0,110,13.39,9.49,225.6
"2009-11-05 00:52:00",1388550,2.494,267.7,1.484,0.083,8.65,103.6866,8.71,9.77,42.31,0,110,13.42,9.50,229.7
"2009-11-05 00:52:30",1388551,2.405,269.8,0.805,0.067,9.07,103.6875,8.71,9.79,42.38,0,110,13.43,9.50,231.8
"2009-11-05 00:53:00",1388552,3.615,281.2,5.483,1.345,11.39,103.6913,8.72,9.85,42.47,0,110,13.39,9.51,243.2
"2009-11-05 00:53:30",1388553,4.025,287.8,6.26,1.158,12.72,103.6928,8.73,9.93,42.58,0,110,13.4,9.51,249.8
"2009-11-05 00:54:00",1388554,2.476,281.2,4.06,0.99,9.92,103.6894,8.72,9.71,42.38,0,110,13.4,9.50,243.2
"2009-11-05 00:54:30",1388555,2.108,276.8,1.158,0.057,8.89,103.6798,8.7,9.7,42.36,0,110,13.43,9.48,238.8
"2009-11-05 00:55:00",1388556,3.454,279.1,6.122,1.326,10.56,103.6688,8.67,9.88,42.59,0,110,13.4,9.45,241.1
"2009-11-05 00:55:30",1388557,4.411,283.3,6.059,1.127,12.43,103.6598,8.64,9.95,42.7,0,110,13.4,9.43,245.3
"2009-11-05 00:56:00",1388558,2.604,274.1,5.292,0.805,9.25,103.6598,8.64,9.73,42.53,0,110,13.4,9.43,236.1
"2009-11-05 00:56:30",1388559,2.285,268.6,1.577,0.037,8.49,103.6598,8.64,9.67,42.48,0,110,13.43,9.43,230.6
"2009-11-05 00:57:00",1388560,2.339,263.4,1.621,0.041,8.72,103.6598,8.64,9.72,42.49,0,110.1,13.43,9.43,225.4
"2009-11-05 00:57:30",1388561,3.994,268.9,6.239,1.225,12.63,103.6575,8.64,9.82,42.66,0,110,13.39,9.42,230.9
"2009-11-05 00:58:00",1388562,3.708,267.1,6.012,1.191,12.95,103.651,8.62,9.78,42.8,0,110.1,13.39,9.40,229.1
"2009-11-05 00:58:30",1388563,1.99,258.7,0.72,0.085,9.47,103.6304,8.57,9.63,42.81,0,110,13.43,9.35,220.7
"2009-11-05 00:59:00",1388564,2.458,261.6,2.59,0.537,8.95,103.6259,8.56,9.61,42.8,0,110,13.39,9.34,223.6
"2009-11-05 00:59:30",1388565,3.37,264.2,5.2,1.183,9.66,103.6259,8.56,9.66,42.77,0,110.1,13.39,9.34,226.2
"2009-11-05 01:00:00",1388566,4.198,269.7,6.695,1.288,12.57,103.6259,8.56,9.87,43.1,0,110,13.39,9.34,231.7
"2009-11-05 01:00:30",1388567,2.759,256.5,7.705,1.145,10.73,103.6259,8.56,9.66,43.11,0,110,13.39,9.34,218.5
"2009-11-05 01:01:00",1388568,2.111,249,1.324,0.014,9.22,103.6259,8.56,9.57,43.08,0,110,13.43,9.34,211.0
"2009-11-05 01:01:30",1388569,2.322,245.5,2.553,0.253,9.75,103.6259,8.56,9.71,43.24,0,110,13.43,9.34,207.5
"2009-11-05 01:02:00",1388570,4.569,255.5,6.008,1.044,13.29,103.6259,8.56,9.72,43.3,0,110,13.4,9.34,217.5
"2009-11-05 01:02:30",1388571,3.29,250.8,5.503,1.216,10.85,103.6259,8.56,9.6,43.24,0,110,13.4,9.34,212.8
"2009-11-05 01:03:00",1388572,2.827,253.5,5.352,1.115,10.97,103.6253,8.56,9.66,43.27,0,110,13.4,9.34,215.5
"2009-11-05 01:03:30",1388573,2.115,254.8,2.282,0.023,9.62,103.6228,8.55,9.67,43.35,0,110,13.44,9.33,216.8
"2009-11-05 01:04:00",1388574,3.756,269.6,4.836,1.267,12.11,103.6219,8.55,9.66,43.33,0,110,13.41,9.33,231.6
"2009-11-05 01:04:30",1388575,3.745,283.2,6.281,1.252,12.64,103.6166,8.53,9.84,43.39,0,110,13.41,9.32,245.2
"2009-11-05 01:05:00",1388576,2.76,281.8,6.161,1.187,9.94,103.6197,8.54,9.55,43,0,110,13.41,9.32,243.8
"2009-11-05 01:05:30",1388577,2.16,272.3,1.676,0.07,8.96,103.6135,8.53,9.63,43.07,0,110,13.44,9.31,234.3
"2009-11-05 01:06:00",1388578,3.408,274.1,7.014,1.307,11.48,103.6053,8.5,9.63,43.09,0,110,13.41,9.29,236.1
"2009-11-05 01:06:30",1388579,3.064,269.3,6.197,1.164,10.41,103.5974,8.48,9.56,43.13,0,110,13.41,9.27,231.3
"2009-11-05 01:07:00",1388580,3.278,267.8,7.255,1.277,11.32,103.5945,8.48,9.67,43.42,0,110,13.41,9.26,229.8
"2009-11-05 01:07:30",1388581,1.837,254.4,1.3,0.019,9.31,103.5937,8.48,9.52,43.32,0,110,13.44,9.26,216.4
"2009-11-05 01:08:00",1388582,2.12,261.1,2.08,0.107,9.47,103.592,8.47,9.54,43.35,0,110,13.44,9.25,223.1
"2009-11-05 01:08:30",1388583,3.515,269.5,6.779,1.313,11.88,103.5923,8.47,9.69,43.55,0,110,13.41,9.25,231.5
"2009-11-05 01:09:00",1388584,3.721,269,6.616,1.316,12.75,103.5923,8.47,9.78,43.65,0,110,13.41,9.25,231.0
"2009-11-05 01:09:30",1388585,2.872,264.4,6.358,1.274,10.96,103.5923,8.47,9.54,43.47,0,110,13.41,9.25,226.4
"2009-11-05 01:10:00",1388586,2.157,262.4,4.053,0.487,9.83,103.5935,8.47,9.64,43.59,0,110,13.45,9.26,224.4
"2009-11-05 01:10:30",1388587,3.369,270.9,5.969,1.19,10.89,103.594,8.48,9.56,43.42,0,110,13.41,9.26,232.9
"2009-11-05 01:11:00",1388588,3.605,270.9,6.546,1.303,10.97,103.5984,8.49,9.68,43.49,0,110,13.41,9.27,232.9
"2009-11-05 01:11:30",1388589,3.223,268,6.401,1.227,10.69,103.5993,8.49,9.66,43.57,0,110,13.41,9.27,230.0
"2009-11-05 01:12:00",1388590,2.749,264.6,2.794,0.664,9.14,103.6017,8.5,9.52,43.44,0,110,13.41,9.28,226.6
"2009-11-05 01:12:30",1388591,2.551,261.1,1.497,0.049,9.07,103.6022,8.5,9.52,43.48,0,110,13.41,9.28,223.1
"2009-11-05 01:13:00",1388592,3.518,259,4.678,1.29,11.45,103.6078,8.51,9.69,43.65,0,110,13.41,9.29,221.0
"2009-11-05 01:13:30",1388593,3.671,251.7,6.651,1.326,11.22,103.6101,8.52,9.51,43.5,0,110,13.41,9.30,213.7
"2009-11-05 01:14:00",1388594,3.51,245.3,5.587,1.305,11.77,103.6116,8.52,9.67,43.62,0,110,13.41,9.30,207.3
"2009-11-05 01:14:30",1388595,3.795,243.6,6.76,1.317,11.85,103.6139,8.53,9.66,43.56,0,110,13.41,9.31,205.6
"2009-11-05 01:15:00",1388596,2.825,237.9,5.416,0.917,10.81,103.6134,8.53,9.68,43.59,0,110,13.41,9.31,199.9
"2009-11-05 01:15:30",1388597,3.48,237.8,7.593,1.276,11.83,103.6169,8.53,9.61,43.5,0,110,13.4,9.32,199.8
"2009-11-05 01:16:00",1388598,3.449,233.2,6.26,1.274,11.59,103.6192,8.54,9.67,43.42,0,110,13.41,9.32,195.2
"2009-11-05 01:16:30",1388599,2.556,226.9,0.259,0.037,9.67,103.6212,8.55,9.53,43.13,0,110,13.44,9.33,188.9
"2009-11-05 01:17:00",1388600,2.66,227.3,1.264,0.527,9.95,103.6315,8.57,9.55,43.06,0,110,13.41,9.35,189.3
"2009-11-05 01:17:30",1388601,3.878,234.8,6.83,1.312,12.85,103.6445,8.6,9.69,43.14,0,110,13.41,9.39,196.8
"2009-11-05 01:18:00",1388602,3.816,234.5,6.859,1.299,12.69,103.6522,8.62,9.67,43.13,0,110,13.41,9.41,196.5
"2009-11-05 01:18:30",1388603,2.976,232.4,6.398,1.179,11.98,103.6572,8.64,9.67,43.17,0,110,13.41,9.42,194.4
"2009-11-05 01:19:00",1388604,2.357,225.9,0.698,0.478,10.22,103.6607,8.65,9.67,43.2,0,110,13.41,9.43,187.9
"2009-11-05 01:19:30",1388605,4.624,236.4,4.159,0.856,14.11,103.6604,8.65,9.69,43.17,0,110,13.41,9.43,198.4
"2009-11-05 01:20:00",1388606,2.916,227.5,5.061,1.043,10.95,103.6607,8.65,9.73,43.19,0,110,13.42,9.43,189.5
"2009-11-05 01:20:30",1388607,3.131,226.4,5.531,1.05,10.52,103.661,8.65,9.6,43,0,110,13.42,9.43,188.4
"2009-11-05 01:21:00",1388608,2.586,220.1,1.161,0.037,9.72,103.661,8.65,9.6,42.96,0,110,13.45,9.43,182.1
"2009-11-05 01:21:30",1388609,2.951,223.1,6.215,0.897,11,103.661,8.65,9.76,43.06,0,110,13.42,9.43,185.1
"2009-11-05 01:22:00",1388610,4.1,235.7,7.606,1.286,13.13,103.6624,8.65,9.81,43.06,0,110,13.42,9.43,197.7
"2009-11-05 01:22:30",1388611,3.333,241.6,7.685,1.297,12.38,103.6706,8.67,9.78,43.09,0,110,13.42,9.45,203.6
"2009-11-05 01:23:00",1388612,3.608,248.4,6.189,1.326,12.26,103.6861,8.71,9.73,43.09,0,110,13.42,9.49,210.4
"2009-11-05 01:23:30",1388613,2.781,239.6,4.745,0.936,10.95,103.6915,8.73,9.84,43.19,0,110,13.42,9.51,201.6
"2009-11-05 01:24:00",1388614,3.661,237.4,6.515,1.266,11.74,103.6949,8.73,9.83,43.02,0,110,13.42,9.52,199.4
"2009-11-05 01:24:30",1388615,3.251,233.8,3.938,0.776,10.04,103.6949,8.73,9.71,42.81,0,110,13.42,9.52,195.8
"2009-11-05 01:25:00",1388616,3.033,231.6,0.602,0.028,9.53,103.6949,8.73,9.68,42.64,0,110,13.45,9.52,193.6
"2009-11-05 01:25:30",1388617,3.054,230.8,0.579,0.039,9.78,103.6949,8.73,9.78,42.66,0,110,13.46,9.52,192.8
"2009-11-05 01:26:00",1388618,4.23,235.5,7.743,1.282,12.3,103.6949,8.73,9.83,42.67,0,110,13.42,9.52,197.5
"2009-11-05 01:26:30",1388619,4.524,232.7,7.145,1.273,13.94,103.6975,8.74,9.99,42.69,0,110,13.42,9.52,194.7
"2009-11-05 01:27:00",1388620,4.405,228.5,6.788,1.241,13.18,103.7076,8.77,9.73,42.42,0,110,13.42,9.55,190.5
"2009-11-05 01:27:30",1388621,3.132,222.4,6.213,1.127,11.53,103.7178,8.79,9.89,42.5,0,110,13.42,9.58,184.4
"2009-11-05 01:28:00",1388622,3.806,227.7,7.213,1.317,12.64,103.7186,8.79,9.91,42.44,0,110,13.42,9.58,189.7
"2009-11-05 01:28:30",1388623,2.827,225.8,4.305,0.998,10.21,103.7254,8.81,9.84,42.41,0,110,13.42,9.59,187.8
"2009-11-05 01:29:00",1388624,2.37,228.9,1.668,0.028,9.49,103.7285,8.82,9.76,42.37,0,110,13.45,9.60,190.9
"2009-11-05 01:29:30",1388625,2.514,233.2,0.813,0.061,9.63,103.7288,8.82,9.76,42.42,0,110,13.45,9.60,195.2
"2009-11-05 01:30:00",1388626,2.586,240.5,2.477,0.062,9.77,103.7288,8.82,9.87,42.51,0,110,13.45,9.60,202.5
"2009-11-05 01:30:30",1388627,4.404,255.4,6.005,1.186,14.14,103.7288,8.82,9.97,42.64,0,110,13.42,9.60,217.4
"2009-11-05 01:31:00",1388628,3.788,251.6,7.047,1.332,13.13,103.7288,8.82,10.03,42.76,0,110,13.42,9.60,213.6
"2009-11-05 01:31:30",1388629,3.761,253.7,6.353,1.304,12.5,103.7288,8.82,9.95,42.66,0,110,13.42,9.60,215.7
"2009-11-05 01:32:00",1388630,2.427,254.7,6.327,0.898,10.15,103.7288,8.82,9.91,42.51,0,110,13.42,9.60,216.7
"2009-11-05 01:32:30",1388631,3.041,271.8,7.261,1.271,11.36,103.7288,8.82,9.92,42.32,0,110,13.42,9.60,233.8
"2009-11-05 01:33:00",1388632,2.093,274.6,1.449,0.07,8.93,103.7288,8.82,9.88,41.81,0,110,13.45,9.60,236.6
"2009-11-05 01:33:30",1388633,2.221,274.7,0.91,0.04,8.78,103.7288,8.82,9.81,41.36,0,110,13.45,9.60,236.7
"2009-11-05 01:34:00",1388634,2.233,274.1,0.844,0.029,8.81,103.7288,8.82,9.82,41.26,0,110,13.45,9.60,236.1
"2009-11-05 01:34:30",1388635,2.159,272.5,2.337,0.046,9.58,103.7288,8.82,9.92,41.39,0,110,13.46,9.60,234.5
"2009-11-05 01:35:00",1388636,3.561,278.8,6.741,1.333,12.23,103.7288,8.82,9.87,41.24,0,110.1,13.43,9.60,240.8
"2009-11-05 01:35:30",1388637,3.046,279.8,6.775,1.326,12.03,103.7288,8.82,10.07,41.44,0,110,13.43,9.60,241.8
"2009-11-05 01:36:00",1388638,2.732,280.5,7.301,1.262,11.69,103.7288,8.82,10.07,41.38,0,110,13.43,9.60,242.5
"2009-11-05 01:36:30",1388639,2.776,282.8,7.669,1.29,10.21,103.7288,8.82,9.85,41.1,0,110,13.43,9.60,244.8
"2009-11-05 01:37:00",1388640,2.801,284,6.648,1.236,10.58,103.7288,8.82,9.94,41.12,0,110,13.43,9.60,246.0
"2009-11-05 01:37:30",1388641,1.985,283.8,4.649,0.65,9.45,103.7288,8.82,9.95,41.06,0,110,13.43,9.60,245.8
"2009-11-05 01:38:00",1388642,1.825,281.3,0.692,0.043,8.61,103.7282,8.82,9.81,40.89,0,110,13.47,9.60,243.3
"2009-11-05 01:38:30",1388643,1.813,279.9,1.964,0.068,8.71,103.7223,8.8,9.81,40.92,0,110,13.47,9.59,241.9
"2009-11-05 01:39:00",1388644,2.043,274.6,1.971,0.162,8.95,103.7133,8.78,9.92,41.1,0,110,13.47,9.56,236.6
"2009-11-05 01:39:30",1388645,3.099,277.1,9.96,1.213,11.53,103.7037,8.76,9.84,41.1,0,110,13.43,9.54,239.1
"2009-11-05 01:40:00",1388646,3.26,262.2,6.215,1.318,11.52,103.6958,8.74,10.06,41.52,0,110,13.43,9.52,224.2
"2009-11-05 01:40:30",1388647,4.444,260.3,7.14,1.306,13.38,103.6949,8.73,9.98,41.68,0,110,13.43,9.52,222.3
"2009-11-05 01:41:00",1388648,3.498,251.3,8.08,1.219,11.02,103.6949,8.73,9.88,41.95,0,110,13.43,9.52,213.3
"2009-11-05 01:41:30",1388649,3.033,247.3,7.096,1.129,10.23,103.6935,8.73,9.9,41.96,0,110,13.43,9.51,209.3
"2009-11-05 01:42:00",1388650,3.238,246.2,7.34,1.098,9.67,103.6853,8.71,9.75,41.9,0,110,13.43,9.49,208.2
"2009-11-05 01:42:30",1388651,2.517,246,2.621,0.097,8.83,103.6669,8.66,9.74,41.92,0,110,13.47,9.44,208.0
"2009-11-05 01:43:00",1388652,2.53,242.4,2.031,0.221,8.94,103.661,8.65,9.75,41.96,0,110,13.47,9.43,204.4
"2009-11-05 01:43:30",1388653,3.703,247.7,9.39,1.287,11.71,103.661,8.65,9.84,42.04,0,110,13.43,9.43,209.7
"2009-11-05 01:44:00",1388654,3.078,229.2,4.293,0.769,10.76,103.661,8.65,9.81,42.42,0,110,13.43,9.43,191.2
"2009-11-05 01:44:30",1388655,4.402,234,7.096,1.248,13.69,103.661,8.65,9.96,42.89,0,110,13.43,9.43,196.0
"2009-11-05 01:45:00",1388656,4.157,235.1,5.725,1.299,12.39,103.661,8.65,9.91,43.02,0,110,13.43,9.43,197.1
"2009-11-05 01:45:30",1388657,3.811,235.6,7.172,1.212,11.35,103.661,8.65,9.72,42.91,0,110,13.43,9.43,197.6
"2009-11-05 01:46:00",1388658,4.086,230.9,6.603,1.258,11.3,103.661,8.65,9.79,43.01,0,110,13.43,9.43,192.9
"2009-11-05 01:46:30",1388659,3.047,226.2,0.656,0.033,9.31,103.6607,8.65,9.67,42.92,0,110,13.46,9.43,188.2
"2009-11-05 01:47:00",1388660,2.895,231.2,1.903,0.062,9.63,103.661,8.65,9.67,42.93,0,110,13.46,9.43,193.2
"2009-11-05 01:47:30",1388661,3.981,239.3,6.702,1.317,12.17,103.6613,8.65,9.71,43.04,0,110,13.43,9.43,201.3
"2009-11-05 01:48:00",1388662,4.068,240.1,5.302,1.322,13.21,103.661,8.65,9.82,43.18,0,110,13.43,9.43,202.1
"2009-11-05 01:48:30",1388663,4.383,239.7,6.658,1.33,13.34,103.6619,8.65,9.9,43.22,0,110,13.43,9.43,201.7
"2009-11-05 01:49:00",1388664,4.576,236.1,7.469,1.285,13.24,103.661,8.65,9.88,43.13,0,110,13.43,9.43,198.1
"2009-11-05 01:49:30",1388665,4.283,232.4,6.51,1.27,12.08,103.6613,8.65,9.82,42.99,0,110,13.43,9.43,194.4
"2009-11-05 01:50:00",1388666,2.958,230,2.995,0.247,10.02,103.6616,8.65,9.78,42.97,0,110,13.46,9.43,192.0
"2009-11-05 01:50:30",1388667,2.765,229,1.09,0.046,9.35,103.6622,8.65,9.68,42.89,0,110,13.47,9.43,191.0